Sterling, IL

9:40 AM CST on November 12, 2019 (GMT -0600)
Whiteside County-Bittorf

Weather History for KSQI - September, 2019

Change the Weather History Date:

Friday, September 27, 2019

  Actual Average Record
Temperature  
Mean Temperature 62 °F -  
Max Temperature 66 °F 68 °F 84 °F (1998)
Min Temperature 57 °F 44 °F 39 °F (2004)
Degree Days  
Heating Degree Days 4    
Growing Degree Days 12 (Base 50)    
Moisture  
Dew Point 60 °F    
Average Humidity 89    
Maximum Humidity 100    
Minimum Humidity 58    
Precipitation  
Precipitation 0.00 in - - ()
Sea Level Pressure  
Sea Level Pressure 29.54 in    
Wind  
Wind Speed 4 mph ()    
Max Wind Speed 8 mph    
Max Gust Speed -    
Visibility 7.9 miles    
Events Rain , Thunderstorm    
Averages and records for this station are not official NWS values.
T = Trace of Precipitation, MM = Missing Value Source: Averaged Metar Reports

Daily Weather History Graph

Daily Weather History Graph

Search for Another Location

Airport or City:

Astronomy

Sep. 27, 2019 Rise Set
Actual Time 6:51 AM CDT 6:47 PM CDT
Civil Twilight 6:23 AM CDT 7:15 PM CDT
Nautical Twilight 5:51 AM CDT 7:47 PM CDT
Astronomical Twilight 5:18 AM CDT 8:20 PM CDT
Moon 5:10 AM CDT (9/27) 6:40 PM CDT (9/27)
Length of Visible Light 12h 51m
Length of Day
11h 56m
Waning Crescent, 2% of the Moon is Illuminated
Sep 27
Waning Crescent
Sep 28
New
Oct 5
First Quarter
Oct 13
Full
Oct 21
Last Quarter

Hourly Weather History & Observations

Time (CDT) Temp. Dew Point Humidity Pressure Visibility Wind Dir Wind Speed Gust Speed Precip Events Conditions
12:56 AM 57.9 °F 50.0 °F 75% 29.47 in 10.0 mi SE 4.6 mph - N/A   Overcast
1:56 AM 62.1 °F 46.9 °F 58% 29.46 in 10.0 mi Variable 3.5 mph - N/A   Overcast
2:56 AM 62.1 °F 48.0 °F 60% 29.42 in 10.0 mi Variable 4.6 mph - N/A   Overcast
3:56 AM 63.0 °F 48.0 °F 58% 29.40 in 10.0 mi Variable 3.5 mph - N/A   Overcast
4:56 AM 63.0 °F 48.0 °F 58% 29.40 in 10.0 mi Variable 5.8 mph - N/A   Overcast
5:56 AM 62.1 °F 48.0 °F 60% 29.38 in 10.0 mi Variable 4.6 mph - N/A   Overcast
6:52 AM 62.6 °F 48.2 °F 59% 29.77 in 10.0 mi Variable 5.8 mph - N/A   Overcast
6:56 AM 63.0 °F 48.0 °F 58% 29.37 in 10.0 mi Variable 6.9 mph - N/A   Overcast
7:56 AM 64.9 °F 50.0 °F 58% 29.34 in 10.0 mi Variable 5.8 mph - N/A   Mostly Cloudy
8:08 AM 64.4 °F 50.0 °F 59% 29.74 in 10.0 mi Variable 5.8 mph - N/A   Scattered Clouds
8:18 AM 64.4 °F 50.0 °F 59% 29.73 in 10.0 mi Variable 4.6 mph - N/A   Mostly Cloudy
8:46 AM 64.4 °F 51.8 °F 64% 29.76 in 10.0 mi WSW 8.1 mph - N/A Thunderstorm Thunderstorm
8:56 AM 64.0 °F 54.0 °F 70% - 10.0 mi North - - N/A Rain , Thunderstorm Thunderstorms and Rain
9:02 AM 60.8 °F 55.4 °F 82% - 1.8 mi SE 6.9 mph - N/A Rain , Thunderstorm Heavy Thunderstorms and Rain
9:09 AM 59.0 °F 55.4 °F 88% 29.71 in 4.0 mi ESE 6.9 mph - N/A Rain , Thunderstorm Thunderstorms and Rain
9:40 AM 59.0 °F 57.2 °F 94% 29.78 in 9.0 mi Calm Calm - N/A Rain , Thunderstorm Rain
9:56 AM 59.0 °F 57.9 °F 96% - 10.0 mi North - - N/A Rain , Thunderstorm Rain
10:49 AM 59.0 °F 59.0 °F 100% 29.78 in 10.0 mi SE 8.1 mph - N/A Rain , Thunderstorm Light Thunderstorms and Rain
10:56 AM 59.0 °F 57.9 °F 96% - 10.0 mi North - - N/A Rain , Thunderstorm Light Thunderstorms and Rain
11:04 AM 59.0 °F 57.2 °F 94% - 9.0 mi North - - N/A Rain Light Rain
11:20 AM - - N/A% - 5.0 mi North - - N/A Rain , Thunderstorm Rain
11:56 AM 60.1 °F 60.1 °F 100% 29.34 in 10.0 mi SSE 6.9 mph - N/A Rain Light Rain
12:41 PM 62.6 °F 60.8 °F 94% 29.69 in 10.0 mi SSE 6.9 mph - N/A   Overcast
12:46 PM 62.6 °F 62.6 °F 100% 29.70 in 10.0 mi SE 6.9 mph - N/A   Overcast
12:56 PM 62.1 °F 62.1 °F 100% 29.31 in 10.0 mi SSE 5.8 mph - N/A Rain Light Rain
1:11 PM 62.6 °F 62.6 °F 100% - 3.0 mi North - - N/A Rain Light Rain
1:16 PM 62.6 °F 62.6 °F 100% 29.70 in 2.0 mi Variable 4.6 mph - N/A Rain Light Rain
1:24 PM 62.6 °F 62.6 °F 100% - 3.0 mi North - - N/A Rain Light Rain
1:56 PM 63.0 °F 63.0 °F 100% 29.30 in 10.0 mi SSE 8.1 mph - N/A   Overcast
2:08 PM 62.6 °F 62.6 °F 100% 29.69 in 10.0 mi Variable 5.8 mph - N/A   Overcast
2:16 PM 64.4 °F 62.6 °F 94% 29.68 in 10.0 mi South 6.9 mph - N/A   Overcast
2:34 PM 64.4 °F 64.4 °F 100% 29.68 in 10.0 mi Variable 3.5 mph - N/A   Overcast
2:42 PM 64.4 °F 64.4 °F 100% 29.68 in 10.0 mi Variable 6.9 mph - N/A   Overcast
2:56 PM 64.9 °F 64.0 °F 97% 29.29 in 10.0 mi Variable 4.6 mph - N/A   Overcast
3:05 PM 64.4 °F 64.4 °F 100% 29.68 in 10.0 mi Variable 4.6 mph - N/A   Overcast
3:56 PM 66.9 °F 66.0 °F 97% - 10.0 mi Calm Calm - N/A Rain Light Rain
4:56 PM 66.9 °F 66.0 °F 97% 29.29 in 10.0 mi Calm Calm - N/A Rain Light Rain
5:56 PM 66.9 °F 66.9 °F 100% 29.29 in 9.0 mi Calm Calm - N/A   Overcast
6:56 PM 66.9 °F 66.9 °F 100% 29.28 in 7.0 mi East 4.6 mph - N/A Rain , Thunderstorm Light Rain
7:10 PM 66.2 °F 66.2 °F 100% 29.68 in 6.0 mi ESE 4.6 mph - N/A Rain Light Rain
7:38 PM 66.2 °F 66.2 °F 100% 29.70 in 6.0 mi Calm Calm - N/A Thunderstorm Overcast
7:56 PM 66.9 °F 66.9 °F 100% 29.31 in 5.0 mi Calm Calm - N/A   Overcast
8:26 PM 66.2 °F 66.2 °F 100% - 3.0 mi North - - N/A Rain , Thunderstorm Light Rain
8:34 PM - - N/A% - 4.0 mi North - - N/A Rain , Thunderstorm Light Thunderstorms and Rain
8:56 PM - - N/A% - 3.0 mi North - - N/A Rain , Thunderstorm Light Thunderstorms and Rain
9:09 PM 66.2 °F 66.2 °F 100% - 5.0 mi ESE 3.5 mph - N/A   Mist
9:35 PM 66.2 °F 66.2 °F 100% - 5.0 mi North - - N/A   Overcast
9:56 PM 66.9 °F 66.9 °F 100% 29.37 in 7.0 mi NE 3.5 mph - N/A   Overcast
10:34 PM 66.2 °F 66.2 °F 100% 29.78 in 8.0 mi ENE 5.8 mph - N/A   Overcast
10:48 PM 66.2 °F 66.2 °F 100% - 6.0 mi North 3.5 mph - N/A   Overcast
10:56 PM 66.9 °F 66.9 °F 100% 29.40 in 7.0 mi NNE 4.6 mph - N/A   Overcast
11:29 PM 66.2 °F 66.2 °F 100% - 8.0 mi North - - N/A Rain Light Rain
11:38 PM 66.2 °F 66.2 °F 100% - 6.0 mi North - - N/A Rain Light Rain
11:47 PM - - N/A% - 5.0 mi North - - N/A Rain , Thunderstorm Light Rain
11:56 PM - - N/A% - 6.0 mi North - - N/A Rain , Thunderstorm Light Rain